Regional Weather Roundup
Issued by NWS

Home | Current Version | Previous Version | Text Only | Print | Product List | Glossary On
Versions: 1 2 3 4 5 6 7 8 9 10 11 12 13 14 15 16 17 18 19 20 21 22 23 24 25 26 27 28 29 30 31 32 33 34 35 36 37 38 39 40 41 42 43 44 45 46 47 48 49 50
000
ASUS42 KTBW 210510
RWRFL
FLORIDA REGIONAL WEATHER ROUNDUP
NATIONAL WEATHER SERVICE TAMPA BAY RUSKIN FL
1200 AM EST SUN DEC 21 2014

NOTE: "FAIR" INDICATES FEW OR NO CLOUDS BELOW 12,000 FEET WITH NO
SIGNIFICANT WEATHER AND/OR OBSTRUCTIONS TO VISIBILITY.


FLZ001>010-012>015-112-114-115-210600-
PANHANDLE FLORIDA

CITY           SKY/WX    TMP DP  RH WIND       PRES   REMARKS
PENSACOLA      CLOUDY    49  48  97 N7        30.12S
CRESTVIEW      CLOUDY    52  49  89 N6        30.15S
DUKE FIELD     CLOUDY    52  50  93 NE9       30.12F
VALPARAISO     CLOUDY    52  50  93 N8        30.12F
PANAMA CITY    CLOUDY    55  52  89 N8        30.11S
APALACHICOLA   CLOUDY    58  54  86 NE12      30.08F

STATION/POSITION SKY/WX   TEMP    WIND        PRES    WAVE   SWELL
                          AIR SEA DIR/SP/G            HT/PER HT/PER
                          (F)     (DEG/KT/KT) (MB)    (FT/S) (FT/S)
30.1N   87.6W              56 69   30/ 16/ 19 1019.1R   3/ 5   2/ 8
29.2N   88.2W              63 74   40/ 17/ 19 1018.3F   6/ 6
28.7N   86.0W              69 75   50/ 17/ 21 1016.7F   5/ 6
PANAMA CITY BEAC           55 61   40/  9/ 13 1019.1R
CAPE SAN BLAS    NOT AVBL
TOWER C                    60      40/ 21/ 22 1017.9F
28.5N   84.5W              70 72  130/ 12/ 14 1017.5F   3/ 5   2/ 6

$$
FLZ011-016>038-118-127-128-134-139-239-210600-
NORTH FLORIDA

CITY           SKY/WX    TMP DP  RH WIND       PRES   REMARKS
MARIANNA       LGT RAIN  54  54 100 E8        30.14R
TALLAHASSEE    CLOUDY    57  50  77 NE6       30.11F
PERRY          CLOUDY    57  52  81 NE6       30.11F
CROSS CITY       N/A     59  54  83 NE5       30.10S
LAKE CITY      CLOUDY    55  54  94 E3        30.14S
GAINESVILLE    CLOUDY    57  56  96 NE3       30.12F
MAYPORT NAS    CLOUDY    60  58  92 N12G18    30.12F
JACKSONVILLE   CLOUDY    58  57  97 N10       30.14S
JAX NAS        CLOUDY    62  57  83 N8        30.14F
JAX CRAIG      CLOUDY    60  57  89 N8        30.13F
JAX CECIL      CLOUDY    57  55  94 N6        30.13F FOG
FERNANDINA BEA CLOUDY    63  59  88 N12       30.12F
ST AUGUSTINE   CLOUDY    61  60  97 N9        30.12F

STATION/POSITION SKY/WX   TEMP    WIND        PRES    WAVE   SWELL
                          AIR SEA DIR/SP/G            HT/PER HT/PER
                          (F)     (DEG/KT/KT) (MB)    (FT/S) (FT/S)
SHELL POINT                56      50/  6/ 13   N/A
KEATON BEACH               59      50/ 10/ 12 1018.7F
CEDAR KEY                  63      70/  5/  6 1019.5R
FERNANDINA                 58 60   20/  7/ 10 1020.1F
30.7N   81.3W                 62                N/A     4/ 5
MAYPORT                    60 61   30/ 11/ 14   N/A
31.4N   80.9W              56 59   30/ 21/ 25 1020.5F   5/ 6
ST AUGUSTINE               62     360/ 15/ 15 1020.2F

$$
FLZ040-043>046-052-053-057-058-063-144-210600-
INTERIOR CENTRAL FLORIDA

CITY           SKY/WX    TMP DP  RH WIND       PRES   REMARKS
OCALA          CLOUDY    61  55  82 NE6       30.11F
THE VILLAGES     N/A     61  61 100 N5        30.01S FOG
LEESBURG       CLOUDY    63  60  90 NE5       30.11F
SANFORD        CLOUDY    63  61  93 NE5       30.09F
ORLANDO EXEC   MOCLDY    65  62  90 E6        30.09F
ORLANDO INTL   CLOUDY    66  62  87 E5        30.09F
WINTER HAVEN   MOCLDY    63  58  83 CALM      30.10S
LAKELAND       PTCLDY    57  55  94 CALM      30.08F
BARTOW         FAIR      59  57  94 E3        30.09F
OKEECHOBEE     CLEAR     61  59  94 SE3       30.10S

$$
FLZ041-047-054-059-064-141-147-210600-
EAST CENTRAL FLORIDA

CITY           SKY/WX    TMP DP  RH WIND       PRES   REMARKS
DAYTONA BEACH  CLOUDY    65  62  90 N3        30.11F
DELAND         CLOUDY   N/A N/A N/A N3        30.11F
JFK SPACE CTR  MOCLDY    60  59  94 CALM      30.09F
CAPE CANAVERAL CLOUDY    63  61  93 E2        30.09S
PATRICK AFB    CLOUDY    66  63  89 S3        30.09S
MELBOURNE      MOCLDY    66  61  84 S6        30.09F
VERO BEACH     CLEAR     60  58  92 CALM      30.09F
FT PIERCE      CLEAR     59  57  93 CALM      30.09F
STUART         CLEAR     63  61  94 CALM      30.10F

STATION/POSITION SKY/WX   TEMP    WIND        PRES    WAVE   SWELL
                          AIR SEA DIR/SP/G            HT/PER HT/PER
                          (F)     (DEG/KT/KT) (MB)    (FT/S) (FT/S)
28.5N   80.2W              74 76  160/  6/  8 1019.5R
28.9N   78.5W              74 76  160/  4/  8 1019.8F   2/10   2/10
TRIDENT PIER               67 66     CALM     1018.6F
28.4N   80.5W                 67                N/A     1/11
27.6N   80.2W                 76                N/A     2/10

$$
FLZ050-056-061-142-242-148-248-149-249-151-251-155-255-
160-260-210600-
WEST CENTRAL FLORIDA

CITY           SKY/WX    TMP DP  RH WIND       PRES   REMARKS
CRYSTAL RIVER  MOCLDY    61  59  94 E5        30.09F
INVERNESS      CLOUDY    61  61 100 NE3       30.10F
BROOKSVILLE    MOCLDY    62  58  86 NE5       30.09F
ZEPHYRHILLS    FAIR      55  54  94 CALM      30.09S
CLEARWATER     CLOUDY    63  59  87 CALM      30.07F
TAMPA INTL     MOCLDY    67  57  70 CALM      30.08F
TAMPA EXEC     MOCLDY    61  57  88 CALM      30.08F
PLANT CITY     PTCLDY    61 N/A N/A CALM      30.09F
MACDILL AFB    MOCLDY    60  58  94 NE1       30.08
PETER O KNIGHT PTCLDY    64  61  88 CALM      30.08S
ST PETERSBURG  PTCLDY    65  61  87 CALM      30.06F
SARASOTA       CLOUDY    65  62  90 CALM      30.06F
VENICE         CLOUDY    66  63  88 E3        30.07F

STATION/POSITION SKY/WX   TEMP    WIND        PRES    WAVE   SWELL
                          AIR SEA DIR/SP/G            HT/PER HT/PER
                          (F)     (DEG/KT/KT) (MB)    (FT/S) (FT/S)
CEDAR KEY                  63      70/  5/  6 1019.5R
28.5N   84.5W              70 72  130/ 12/ 14 1017.5F   3/ 5   2/ 6
27.3N   84.3W                 75                N/A     3/ 4
CLEARWATER BEACH           67 64   90/  3/  4 1018.2F
MIDDLE TAMPA BAY           65     100/  4/  5 1018.7R
VENICE                     67 66  100/  5/  6 1017.7F

$$
FLZ066-069-070-075>078-162-262-165-265-210600-
SOUTHWEST FLORIDA AND KEYS

CITY           SKY/WX    TMP DP  RH WIND       PRES   REMARKS
PUNTA GORDA    MOCLDY    62  60  93 E3        30.09S
FT MYERS       CLOUDY    65  62  90 SE6       30.06F
SOUTHWEST INTL MOCLDY    63  61  93 E3        30.08F
NAPLES         MOCLDY    66  63  90 SE5       30.07F
MARCO ISLAND   MOCLDY    64  61  88 E6        30.08S
MARATHON       CLEAR     70  69  97 NE3       30.08R
KEY WEST NAS   PTCLDY    72  68  87 E7        30.07F
KEY WEST INTL  CLEAR     73  69  87 E6        30.08S

STATION/POSITION SKY/WX   TEMP    WIND        PRES    WAVE   SWELL
                          AIR SEA DIR/SP/G            HT/PER HT/PER
                          (F)     (DEG/KT/KT) (MB)    (FT/S) (FT/S)
VENICE                     67 66  100/  5/  6 1017.7F
NAPLES                     67 73  110/  4/  6 1018.8F
26.0N   85.6W              75 76  160/  4/  6 1017.0S   2/ 7   2/ 7
DRY TORTUGAS               73     100/  8/ 10 1017.9R
NW FL BAY                  71      70/  3/  4 1019.2R
SAND KEY                   75     100/ 13/ 15 1018.3R
SOMBRERO KEY               75     100/  9/ 10 1019.2R
LONG KEY                   71 71   50/  5/  6 1019.4F
MOLASSES REEF              75 76  110/  5/  5 1018.6F

$$
FLZ067-068-071>074-168-172>174-210600-
SOUTHEAST FLORIDA

CITY           SKY/WX    TMP DP  RH WIND       PRES   REMARKS
W PALM BEACH   PTCLDY    66  63  90 CALM      30.08F
FT LAUDER-EXEC PTCLDY    65  61  87 CALM      30.09F
FT LAUDERDALE  PTCLDY    67  64  90 CALM      30.08F
POMPANO BEACH  CLEAR     67  61  81 CALM      30.09F
PEMBROKE PINES PTCLDY    65  61  87 CALM      30.10F
OPA LOCKA      PTCLDY    62  61  96 CALM      30.09F
MIAMI          PTCLDY    68  63  84 CALM      30.09F
WEST KENDALL   PTCLDY    63  62  97 CALM      30.09F
HOMESTEAD      CLEAR     63  62  94 CALM      30.08F

STATION/POSITION SKY/WX   TEMP    WIND        PRES    WAVE   SWELL
                          AIR SEA DIR/SP/G            HT/PER HT/PER
                          (F)     (DEG/KT/KT) (MB)    (FT/S) (FT/S)
PORT EVERGLADES            75     130/  6/  9 1018.6
VIRGINIA KEY               73 72  110/  2/  4 1019.1F
LAKE WORTH                 75 76  150/  8/ 11 1018.6F
SETTLEMENT POINT           72     100/  8/ 10 1019.9F

$$



USA.gov is the U.S. government's official web portal to all federal, state and local government web resources and services.